Location: Newark
(33.6439°N, 114.9881°W)
Time: 00:37:09
(UTC+00:00)

Tiros 1 - Pass Details

Date: 30 July 2019
Orbit: 630 x 664 km, 48.4° (Epoch: 21 August)

Event Time Altitude Azimuth Distance (km) Brightness Sun altitude
Rises 19:33:44 0° 308° (NW) 2,988 10.4 74.5°
Reaches altitude 10° 19:37:14 10° 334° (NNW) 2,079 9.7 74.6°
Maximum altitude 19:39:43 14° 6° (N) 1,829 9.5 74.7°
Drops below altitude 10° 19:42:13 10° 37° (NE) 2,082 9.8 74.8°
Sets 19:45:43 0° 63° (ENE) 2,994 10.5 74.8°
